KE8AFF-13 Weather Reports


Display with metric or nautical units.
time (UTC)temp
F
wind
direction
speed
MPH
gust
MPH
rain 1hr
in
rain 24hr
in
rain mn
in
humidity
%
barometer
mb
20260506225312 53 266 5.0 8.0 0.00 0.29 0.29 58 1013.2
20260506224809 53 250 4.0 6.0 0.00 0.29 0.29 58 1013.1
20260506224306 54 234 2.0 6.0 0.00 0.29 0.29 58 1013.1
20260506223803 54 244 2.0 2.0 0.00 0.29 0.29 59 1012.8
20260506223257 54 239 2.0 7.0 0.00 0.29 0.29 58 1012.7
20260506222755 54 232 3.0 3.0 0.00 0.29 0.29 58 1013.1
20260506222250 54 216 1.0 3.0 0.00 0.29 0.29 57 1013.0
20260506221748 54 217 1.0 7.0 0.00 0.29 0.29 55 1013.1
20260506221246 54 215 2.0 3.0 0.00 0.29 0.29 57 1013.1
20260506220743 54 237 1.0 5.0 0.00 0.29 0.29 56 1013.0
20260506220238 54 297 2.0 6.0 0.00 0.29 0.29 57 1013.1
20260506215735 54 229 1.0 6.0 0.00 0.29 0.29 57 1013.0
20260506215230 54 321 2.0 7.0 0.00 0.29 0.29 56 1012.5
20260506214722 54 238 1.0 5.0 0.00 0.29 0.29 58 1012.5
20260506214219 54 290 5.0 6.0 0.00 0.29 0.29 56 1012.5
20260506213717 54 338 3.0 6.0 0.00 0.29 0.29 57 1012.6
20260506213214 54 215 3.0 6.0 0.00 0.29 0.29 55 1012.7
20260506212711 54 224 2.0 8.0 0.00 0.29 0.29 55 1012.5
20260506212206 54 239 1.0 3.0 0.00 0.29 0.29 56 1012.5
20260506211702 54 239 3.0 5.0 0.00 0.29 0.29 56 1012.5
20260506211158 54 248 3.0 5.0 0.00 0.29 0.29 57 1012.4
20260506210655 54 259 4.0 6.0 0.00 0.29 0.29 57 1012.3
20260506210152 54 29 2.0 3.0 0.00 0.29 0.29 57 1012.4
20260506205649 53 211 1.0 3.0 0.00 0.29 0.29 57 1012.1
20260506205144 54 337 7.0 8.0 0.00 0.29 0.29 55 1012.2
20260506204643 54 333 4.0 5.0 0.00 0.29 0.29 56 1012.3
20260506204139 53 22 4.0 6.0 0.00 0.29 0.29 55 1012.1
20260506203637 53 346 4.0 9.0 0.00 0.29 0.29 56 1012.2
20260506203133 54 318 5.0 10.0 0.00 0.29 0.29 55 1012.3
20260506202632 54 354 4.0 8.0 0.00 0.29 0.29 53 1012.3
20260506202128 54 64 3.0 10.0 0.00 0.29 0.29 55 1012.2
20260506201625 54 327 3.0 9.0 0.00 0.29 0.29 55 1012.1
20260506201121 54 218 1.0 8.0 0.00 0.29 0.29 55 1012.6
20260506200618 54 322 3.0 7.0 0.00 0.29 0.29 54 1012.4
20260506200115 55 218 0.0 5.0 0.00 0.29 0.29 56 1012.6
20260506195611 54 349 7.0 14.0 0.00 0.29 0.29 54 1012.4
20260506195108 54 332 1.0 10.0 0.00 0.29 0.29 56 1012.3
20260506194605 54 345 6.0 9.0 0.00 0.29 0.29 55 1012.3
20260506194101 54 343 5.0 13.0 0.00 0.29 0.29 56 1012.4
20260506193559 54 321 6.0 9.0 0.00 0.29 0.29 54 1012.3
20260506193056 55 312 4.0 5.0 0.00 0.29 0.29 54 1012.1
20260506192553 55 257 2.0 5.0 0.00 0.29 0.29 55 1012.1
20260506192049 54 336 5.0 8.0 0.00 0.29 0.29 55 1012.2
20260506191546 55 58 6.0 11.0 0.00 0.29 0.29 54 1012.3
20260506191042 55 319 6.0 6.0 0.00 0.29 0.29 53 1012.3
20260506190539 55 62 6.0 10.0 0.00 0.29 0.29 53 1012.2
20260506190036 55 267 2.0 5.0 0.00 0.29 0.29 55 1012.0
20260506185533 55 219 1.0 5.0 0.00 0.29 0.29 55 1012.1
20260506185029 55 301 4.0 7.0 0.00 0.29 0.29 58 1011.9
20260506184527 55 235 1.0 3.0 0.00 0.29 0.29 58 1012.1
20260506184018 55 307 5.0 8.0 0.00 0.29 0.29 56 1012.0
20260506183514 55 238 1.0 5.0 0.00 0.29 0.29 56 1012.1
20260506183011 55 228 4.0 7.0 0.00 0.29 0.29 57 1012.3
20260506182508 54 200 3.0 8.0 0.00 0.29 0.29 55 1012.2
20260506182004 54 299 2.0 7.0 0.00 0.29 0.29 57 1012.5
20260506181502 54 353 4.0 9.0 0.00 0.29 0.29 58 1012.5
20260506180959 55 345 4.0 11.0 0.00 0.29 0.29 57 1012.5
20260506180456 55 214 3.0 8.0 0.00 0.29 0.29 58 1012.2
20260506175953 55 326 7.0 9.0 0.00 0.29 0.29 57 1012.0
20260506175450 55 355 8.0 13.0 0.00 0.29 0.29 58 1012.0
20260506174946 55 357 4.0 8.0 0.00 0.29 0.29 56 1011.9
20260506174444 56 282 5.0 9.0 0.00 0.29 0.29 59 1012.3
20260506173941 55 303 5.0 8.0 0.00 0.29 0.29 58 1012.2
20260506173438 56 357 7.0 9.0 0.00 0.29 0.29 57 1012.2
20260506172935 57 300 9.0 11.0 0.00 0.29 0.29 56 1012.5
20260506172432 57 231 3.0 8.0 0.00 0.29 0.29 56 1012.6
20260506171928 56 355 10.0 11.0 0.00 0.29 0.29 55 1012.4
20260506171426 55 338 8.0 9.0 0.00 0.29 0.29 56 1012.4
20260506170918 55 348 7.0 11.0 0.00 0.29 0.29 56 1012.1
20260506170414 55 15 7.0 14.0 0.00 0.29 0.29 58 1012.2
20260506165913 55 275 7.0 11.0 0.00 0.29 0.29 60 1012.2
20260506165410 54 237 3.0 11.0 0.00 0.29 0.29 63 1012.3
20260506164906 54 329 7.0 8.0 0.00 0.29 0.29 63 1012.0
20260506164403 55 14 9.0 13.0 0.00 0.29 0.29 60 1012.1
20260506163902 54 347 5.0 13.0 0.00 0.29 0.29 64 1012.1
20260506163356 54 343 4.0 9.0 0.00 0.29 0.29 65 1012.2
20260506162851 54 327 4.0 10.0 0.00 0.29 0.29 62 1012.0
20260506162349 54 27 4.0 9.0 0.00 0.29 0.29 67 1012.2
20260506161847 55 255 4.0 9.0 0.00 0.29 0.29 64 1012.5
20260506161343 55 221 1.0 5.0 0.00 0.29 0.29 67 1012.5
20260506160835 54 98 2.0 3.0 0.00 0.29 0.29 69 1012.6
20260506160332 55 332 6.0 8.0 0.00 0.29 0.29 68 1012.6
20260506155831 53 351 4.0 9.0 0.00 0.29 0.29 69 1012.5
20260506155326 53 284 5.0 9.0 0.00 0.29 0.29 68 1012.2
20260506153439 53 63 2.0 3.0 0.00 0.29 0.29 71 1012.1
20260506152937 52 14 5.0 13.0 0.00 0.29 0.29 72 1011.8
20260506152433 53 12 4.0 7.0 0.00 0.29 0.29 71 1011.9
20260506151932 52 339 2.0 6.0 0.00 0.29 0.29 73 1011.9
20260506151429 52 309 7.0 9.0 0.00 0.29 0.29 73 1012.3
20260506150927 51 356 4.0 7.0 0.00 0.29 0.29 73 1012.0
20260506150422 52 345 7.0 9.0 0.00 0.29 0.29 72 1011.8
20260506145920 52 210 5.0 10.0 0.00 0.29 0.29 73 1011.9
20260506145416 51 289 5.0 8.0 0.00 0.29 0.29 75 1011.7
20260506144913 51 339 4.0 8.0 0.00 0.29 0.29 74 1011.7
20260506144409 50 355 5.0 10.0 0.00 0.29 0.29 76 1011.9
20260506143908 51 330 4.0 5.0 0.00 0.29 0.29 76 1011.8
20260506143404 50 331 5.0 10.0 0.00 0.29 0.29 76 1011.6
20260506142903 50 5 3.0 8.0 0.00 0.29 0.29 78 1011.6
20260506142401 50 218 3.0 6.0 0.00 0.29 0.29 78 1011.7
20260506141858 49 270 3.0 13.0 0.00 0.29 0.29 79 1011.3
20260506141356 49 346 7.0 10.0 0.00 0.29 0.29 78 1011.4
20260506140854 49 338 7.0 9.0 0.00 0.29 0.29 79 1011.2
20260506140351 49 326 6.0 7.0 0.00 0.29 0.29 79 1011.3
20260506135848 48 314 3.0 6.0 0.00 0.29 0.29 81 1011.2
20260506135345 48 278 3.0 6.0 0.00 0.29 0.29 81 1011.2
20260506134841 47 337 8.0 10.0 0.00 0.29 0.29 82 1011.2
20260506134337 47 349 5.0 8.0 0.00 0.29 0.29 83 1011.5
20260506133834 47 337 4.0 9.0 0.00 0.29 0.29 85 1011.6
20260506133331 47 346 4.0 5.0 0.00 0.29 0.29 85 1011.6
20260506132828 46 336 4.0 5.0 0.00 0.29 0.29 86 1011.6
20260506132325 46 287 4.0 5.0 0.00 0.29 0.29 87 1011.5
20260506131823 46 309 3.0 6.0 0.00 0.29 0.29 88 1011.5
20260506131319 46 237 2.0 3.0 0.00 0.29 0.29 88 1011.4
20260506130816 46 310 2.0 5.0 0.00 0.29 0.29 89 1011.2
20260506130312 46 127 1.0 5.0 0.00 0.29 0.29 89 1011.1
20260506125811 46 349 6.0 7.0 0.00 0.29 0.29 89 1010.7
20260506125309 45 245 2.0 5.0 0.00 0.29 0.29 90 1010.9
20260506124807 45 263 3.0 5.0 0.00 0.29 0.29 90 1011.1
20260506124303 45 343 4.0 7.0 0.00 0.29 0.29 91 1010.9
20260506123801 45 331 3.0 5.0 0.00 0.29 0.29 91 1010.8
20260506123300 45 275 2.0 5.0 0.00 0.29 0.29 92 1010.5
20260506122756 44 280 2.0 6.0 0.00 0.29 0.29 92 1010.7
20260506122253 44 334 6.0 9.0 0.00 0.29 0.29 93 1010.5
20260506121751 44 224 3.0 6.0 0.00 0.29 0.29 93 1010.7
20260506121248 44 235 2.0 6.0 0.00 0.29 0.29 93 1010.3
20260506120745 44 266 3.0 7.0 0.00 0.29 0.29 93 1010.3
20260506120243 44 336 5.0 6.0 0.00 0.29 0.29 94 1010.0
20260506115740 44 162 2.0 7.0 0.00 0.29 0.29 93 1010.0
20260506115238 44 251 3.0 8.0 0.00 0.29 0.29 93 1009.8
20260506114736 43 347 5.0 9.0 0.00 0.29 0.29 93 1009.7
20260506114233 43 310 4.0 6.0 0.00 0.29 0.29 93 1009.6
20260506113732 43 286 3.0 6.0 0.00 0.29 0.29 94 1009.3
20260506113229 43 331 5.0 7.0 0.00 0.29 0.29 94 1009.5
20260506112725 43 313 2.0 6.0 0.00 0.29 0.29 95 1009.5
20260506112223 42 264 3.0 6.0 0.00 0.29 0.29 95 1009.2
20260506111720 42 287 3.0 5.0 0.00 0.29 0.29 96 1009.3
20260506111218 42 345 4.0 5.0 0.00 0.29 0.29 97 1009.3
20260506110715 42 305 5.0 6.0 0.00 0.29 0.29 98 1009.4
20260506110213 42 339 6.0 7.0 0.00 0.29 0.29 99 1009.6
20260506105709 41 349 4.0 5.0 0.00 0.29 0.29 99 1010.0
20260506105206 41 315 3.0 6.0 0.00 0.29 0.29 99 1009.8
20260506104704 41 336 4.0 7.0 0.00 0.29 0.29 99 1009.3
20260506104201 41 142 1.0 5.0 0.00 0.29 0.29 99 1008.8
20260506103658 41 292 3.0 6.0 0.00 0.29 0.29 99 1008.5
20260506103155 41 344 6.0 8.0 0.00 0.29 0.29 99 1008.6
20260506102653 42 341 4.0 6.0 0.00 0.29 0.29 99 1009.0
20260506102150 41 336 6.0 8.0 0.00 0.29 0.29 99 1009.0
20260506101647 42 9 5.0 7.0 0.00 0.29 0.29 99 1009.0
20260506101144 42 326 5.0 7.0 0.00 0.29 0.29 99 1008.7
20260506100642 42 348 9.0 9.0 0.00 0.29 0.29 99 1008.4
20260506100140 43 209 4.0 10.0 0.00 0.29 0.29 99 1008.6
20260506095639 43 355 5.0 11.0 0.00 0.29 0.29 99 1008.5
20260506095134 44 334 7.0 11.0 0.00 0.29 0.29 99 1008.1
20260506094632 45 342 6.0 9.0 0.00 0.29 0.29 99 1008.1
20260506094130 45 323 3.0 9.0 0.00 0.29 0.29 99 1008.3
20260506093628 45 345 5.0 8.0 0.00 0.29 0.29 99 1008.3
20260506093125 45 348 3.0 7.0 0.00 0.29 0.29 99 1008.2
20260506092623 45 313 5.0 7.0 0.00 0.29 0.29 99 1007.8
20260506092120 45 8 3.0 8.0 0.00 0.29 0.29 99 1007.7
20260506091618 45 315 3.0 3.0 0.00 0.29 0.29 99 1007.4
20260506091115 44 286 2.0 5.0 0.00 0.29 0.29 99 1007.2
20260506090613 44 36 5.0 8.0 0.02 0.29 0.29 99 1007.6
20260506090109 44 12 5.0 7.0 0.02 0.29 0.29 99 1007.4
20260506085606 44 348 5.0 7.0 0.00 0.29 0.29 99 1007.9
20260506085102 44 320 5.0 9.0 0.00 0.29 0.29 99 1008.2
20260506084559 44 12 8.0 9.0 0.02 0.29 0.29 99 1008.5
20260506084055 44 333 7.0 8.0 0.02 0.28 0.28 99 1008.4
20260506083553 44 1 5.0 7.0 0.05 0.28 0.28 99 1008.4
20260506083050 44 104 3.0 8.0 0.02 0.28 0.28 99 1008.4
20260506082546 45 325 3.0 5.0 0.00 0.28 0.28 99 1008.3
20260506082042 44 123 3.0 9.0 0.00 0.28 0.28 99 1008.3
20260506081541 44 48 6.0 8.0 0.00 0.28 0.28 99 1008.2
20260506081038 44 6 6.0 10.0 0.00 0.28 0.28 99 1007.9
20260506080535 45 328 2.0 7.0 0.00 0.28 0.28 99 1008.0
20260506073519 44 342 6.0 13.0 0.05 0.27 0.27 99 1007.9
20260506073016 45 327 5.0 8.0 0.02 0.27 0.27 99 1007.9
20260506072513 45 343 6.0 11.0 0.05 0.26 0.26 99 1008.1
20260506072011 45 351 5.0 7.0 0.09 0.26 0.26 99 1008.2
20260506071508 45 355 2.0 8.0 0.09 0.26 0.26 99 1008.1
20260506071005 45 323 4.0 8.0 0.09 0.24 0.24 99 1008.3
20260506070502 45 16 7.0 11.0 0.12 0.24 0.24 99 1008.4
20260506062440 45 102 4.0 6.0 0.09 0.19 0.19 99 1007.8
20260506061936 45 332 2.0 3.0 0.12 0.18 0.18 99 1007.8
20260506061432 45 41 3.0 7.0 0.14 0.18 0.18 99 1007.9
20260506060931 45 297 3.0 6.0 0.14 0.17 0.17 99 1007.7
20260506060428 45 359 6.0 6.0 0.14 0.15 0.15 99 1007.8
20260506051400 45 45 5.0 8.0 0.02 0.05 0.05 99 1007.8
20260506050857 45 229 5.0 9.0 0.02 0.05 0.05 99 1007.9
20260506050355 45 23 2.0 7.0 0.05 0.04 0.04 99 1008.1
20260506044845 45 349 5.0 9.0 0.02 0.03 0.03 99 1008.5
20260506044343 46 333 7.0 10.0 0.00 0.02 0.02 99 1008.4
20260506043840 46 340 5.0 9.0 0.02 0.02 0.02 99 1008.3
20260506043337 46 357 4.0 7.0 0.02 0.02 0.02 99 1008.2
20260506042835 46 351 3.0 6.0 0.02 0.02 0.02 99 1008.1
20260506042334 46 305 4.0 6.0 0.05 0.02 0.02 99 1007.8
20260506041833 46 358 4.0 7.0 0.07 0.02 0.02 99 1007.8
20260506041329 46 357 4.0 6.0 0.05 0.01 0.01 99 1007.6
20260506040826 46 25 3.0 5.0 0.02 0.00 0.00 99 1007.8
20260506040324 46 247 1.0 5.0 0.05 0.00 0.00 99 1007.5
20260506035820 46 22 3.0 6.0 0.02 0.78 0.78 99 1007.6
20260506035317 46 20 3.0 3.0 0.02 0.78 0.78 99 1007.7
20260506034814 46 224 1.0 5.0 0.07 0.78 0.78 99 1007.8
20260506034312 46 20 7.0 8.0 0.09 0.78 0.78 99 1007.7
20260506033809 46 82 3.0 7.0 0.07 0.77 0.77 99 1007.8
20260506033306 46 335 3.0 7.0 0.02 0.76 0.76 99 1008.0
20260506032802 46 353 3.0 9.0 0.02 0.76 0.76 99 1007.9
20260506032259 46 338 3.0 6.0 0.05 0.76 0.76 99 1008.1
20260506031755 47 47 6.0 7.0 0.07 0.75 0.75 99 1008.0
20260506031253 47 326 2.0 3.0 0.07 0.74 0.74 99 1008.1
20260506030751 47 317 4.0 7.0 0.09 0.74 0.74 99 1008.5
20260506030249 47 338 4.0 7.0 0.12 0.73 0.73 99 1008.7
20260506025745 47 16 4.0 7.0 0.12 0.72 0.72 99 1008.5
20260506025242 47 341 3.0 3.0 0.07 0.71 0.71 99 1008.6
20260506024739 47 230 3.0 8.0 0.05 0.70 0.70 99 1008.6
20260506024235 47 338 3.0 6.0 0.05 0.70 0.70 99 1008.8
20260506023731 47 348 5.0 8.0 0.07 0.70 0.70 99 1008.7
20260506023229 47 351 7.0 10.0 0.05 0.69 0.69 99 1009.0
20260506022725 47 346 5.0 7.0 0.05 0.69 0.69 99 1008.9
20260506022223 47 330 4.0 6.0 0.07 0.68 0.68 99 1008.8
20260506021721 47 356 5.0 6.0 0.12 0.68 0.68 99 1009.1
20260506021218 47 343 9.0 11.0 0.09 0.66 0.66 99 1008.6
20260506020714 47 340 6.0 14.0 0.12 0.65 0.65 99 1008.9
20260506020213 48 6 7.0 11.0 0.12 0.64 0.64 99 1008.8
20260506015710 49 1 5.0 8.0 0.17 0.63 0.63 99 1008.6
20260506015207 49 279 1.0 3.0 0.17 0.62 0.62 99 1008.7
20260506014704 49 10 3.0 9.0 0.12 0.61 0.61 99 1008.3
20260506014200 49 329 5.0 7.0 0.12 0.59 0.59 99 1008.3
20260506013658 49 59 4.0 7.0 0.12 0.59 0.59 99 1008.0
20260506013155 49 333 4.0 6.0 0.09 0.57 0.57 99 1008.2
20260506012651 49 329 6.0 8.0 0.07 0.56 0.56 99 1008.0
20260506012148 49 305 3.0 6.0 0.07 0.56 0.56 99 1007.8
20260506011646 49 17 6.0 8.0 0.07 0.55 0.55 99 1008.0
20260506011141 49 285 6.0 8.0 0.07 0.55 0.55 99 1007.7
20260506010640 49 355 4.0 6.0 0.07 0.54 0.54 99 1007.9
20260506010137 50 235 2.0 3.0 0.09 0.54 0.54 99 1007.9
20260506005634 49 207 1.0 2.0 0.09 0.53 0.53 99 1007.9
20260506005131 50 62 3.0 9.0 0.09 0.52 0.52 99 1007.5
20260506004627 50 355 4.0 7.0 0.12 0.51 0.51 99 1007.8
20260506004124 50 304 3.0 6.0 0.17 0.50 0.50 99 1007.9
20260506003621 50 334 3.0 9.0 0.31 0.48 0.48 99 1007.7
20260506003117 50 14 5.0 10.0 0.35 0.46 0.46 99 1007.6
20260506002613 50 341 8.0 14.0 0.28 0.43 0.43 99 1007.5
20260506002109 50 10 10.0 11.0 0.21 0.40 0.40 99 1007.6
20260506001605 50 254 4.0 11.0 0.24 0.39 0.39 99 1007.4
20260506001102 51 342 9.0 14.0 0.19 0.36 0.36 99 1007.4
20260506000600 52 320 7.0 10.0 0.19 0.35 0.35 99 1007.3
20260506000057 52 329 8.0 9.0 0.17 0.33 0.33 99 1007.2
20260505235555 53 309 6.0 10.0 0.12 0.31 0.31 99 1007.1
20260505235052 53 348 7.0 8.0 0.17 0.30 0.30 99 1006.7
20260505234548 53 333 4.0 5.0 0.21 0.29 0.29 99 1006.7
20260505234045 53 350 6.0 8.0 0.14 0.27 0.27 99 1007.1
20260505233543 54 312 3.0 3.0 0.05 0.26 0.26 99 1006.6
20260505233040 54 183 1.0 2.0 0.00 0.25 0.25 99 1006.3
20260505232538 54 123 1.0 2.0 0.00 0.25 0.25 99 1006.3
20260505232035 54 175 1.0 1.0 0.00 0.25 0.25 99 1006.7
20260505231532 54 140 1.0 1.0 0.00 0.25 0.25 99 1006.7
20260505231031 54 196 1.0 1.0 0.00 0.25 0.25 99 1006.8
20260505230527 53 209 0.0 2.0 0.00 0.25 0.25 99 1006.7
20260505230024 53 97 2.0 5.0 0.00 0.25 0.25 99 1006.8
20260505225521 54 209 0.0 1.0 0.02 0.25 0.25 99 1007.0